Regional Weather Roundup
Issued by NWS

Home | Current Version | Previous Version | Text Only | Print | Product List | Glossary On
Versions: 1 2 3 4 5 6 7 8 9 10 11 12 13 14 15 16 17 18 19 20 21 22 23 24 25 26 27 28 29 30 31 32 33 34 35 36 37 38 39 40 41 42 43 44 45 46 47 48 49 50
000
ASUS44 KOUN 202000
RWROK

WEATHER ROUNDUP FOR OKLAHOMA
NATIONAL WEATHER SERVICE NORMAN OK
300 PM CDT FRI OCT 20 2017

NOTE: "FAIR" INDICATES FEW OR NO CLOUDS BELOW 12,000 FEET WITH NO
      SIGNIFICANT WEATHER AND/OR OBSTRUCTIONS TO VISIBILITY.

OKZ001>007-009>012-014-015-017-202100-
NORTHWEST OKLAHOMA AND THE PANHANDLE

CITY           SKY/WX    TMP DP  RH WIND       PRES   REMARKS
GAGE           CLOUDY    74  58  57 S32G44    29.77F
GUYMON         SUNNY     82  48  30 S32G43    29.67F
$$

OKZ016-021>023-033>039-044-045-202100-
SOUTHWEST OKLAHOMA

CITY           SKY/WX    TMP DP  RH WIND       PRES   REMARKS
LAWTON/REGL    CLOUDY    79  62  56 S21G29    29.89F
LAWTON/FT SILL CLOUDY    77  64  64 S17G23    29.88F
FREDERICK      CLOUDY    82  62  50 S20G28    29.84F
CLINTON        CLOUDY    72  59  63 S32       29.85F
HOBART         CLOUDY    76  61  59 S28G33    29.88F
ALTUS AFB      CLOUDY    78  60  53 S18G28    29.86F
$$

OKZ018>020-024>031-202100-
CENTRAL OKLAHOMA

CITY           SKY/WX    TMP DP  RH WIND       PRES   REMARKS
OKLAHOMA CITY  CLOUDY    76  55  48 S21G29    29.89F
OKC/WILEY POST CLOUDY    78  58  49 S20G32    29.89F
OKC/TINKER AFB CLOUDY    78  57  48 S20G28    29.89F
STILLWATER     MOSUNNY   81  57  43 S16G28    29.89F
GUTHRIE        SUNNY     79  57  46 S21G30    29.88F
$$

OKZ008-013-054>072-202100-
NORTHEAST OKLAHOMA

CITY           SKY/WX    TMP DP  RH WIND       PRES   REMARKS
TULSA          PTSUNNY   77  61  57 S21G31    29.92F
TULSA/JONES    MOSUNNY   78  60  53 S17G26    29.93F
PONCA CITY     SUNNY     77  57  50 S16G37    29.87F
BARTLESVILLE   CLOUDY    74  58  57 SE16G22   29.93F
MUSKOGEE       MOSUNNY   78  62  57 SE17G24   29.99F
$$

OKZ032-040>043-046>053-073>077-202100-
SOUTH CENTRAL/SOUTHEAST OKLAHOMA

CITY           SKY/WX    TMP DP  RH WIND       PRES   REMARKS
MCALESTER      MOSUNNY   81  61  50 SE13G22   29.99F
$$





USA.gov is the U.S. government's official web portal to all federal, state and local government web resources and services.